Location: Kielce
(50.8833°N, 20.6167°E)
Time: 00:38:31
(UTC+02:00)

SR - Pass Details

Date: 23 April 2021
Orbit: 573 x 882 km, 66.7° (Epoch: 16 May)

Event Time Altitude Azimuth Distance (km) Brightness Sun altitude
Rises 12:58:58 0° 315° (NW) 3,490 ? 51.5°
Reaches altitude 10° 13:02:08 10° 331° (NNW) 2,548 ? 51.4°
Maximum altitude 13:06:34 21° 19° (NNE) 1,858 ? 51.3°
Drops below altitude 10° 13:10:54 10° 68° (ENE) 2,481 ? 51.1°
Sets 13:13:56 0° 84° (E) 3,372 ? 51.0°
